GW0273 Weather Reports


time (UTC)temp
C
wind
direction
speed
KPH
gust
KPH
rain 1hr
cm
rain 24hr
cm
rain mn
cm
humidity
%
barometer
mb
20260505091536 7 189 9.7 32.2 0.00 1.80 0.00 78 1008.3
20260505090030 7 184 12.9 29.0 0.00 1.80 0.00 77 1008.0
20260505084535 7 220 8.0 25.7 0.00 1.85 0.00 77 1007.9
20260505083044 8 274 9.7 30.6 0.00 1.85 0.00 77 1007.6
20260505081534 7 261 11.3 33.8 0.00 1.85 0.00 78 1007.3
20260505080044 7 271 17.7 38.6 0.00 1.85 0.00 78 1007.1
20260505074538 7 202 17.7 54.7 0.00 1.88 0.00 78 1006.6
20260505073043 7 250 12.9 40.2 0.00 1.88 0.00 77 1006.4
20260505071540 7 270 16.1 37.0 0.00 1.88 0.00 78 1006.1
20260505070036 7 276 11.3 29.0 0.00 1.88 0.00 77 1006.0
20260505064535 7 264 12.9 40.2 0.00 1.88 0.00 76 1005.4
20260505063045 7 216 11.3 37.0 0.00 1.88 0.00 76 1005.4
20260505061535 8 237 16.1 33.8 0.00 1.88 0.00 75 1005.2
20260505060035 8 236 17.7 37.0 0.00 1.88 0.00 75 1005.0
20260505054543 8 182 17.7 45.1 0.00 1.91 0.00 75 1005.0
20260505053043 8 214 20.9 38.6 0.00 1.91 0.00 75 1005.0
20260505051541 8 218 17.7 37.0 0.00 1.91 0.00 75 1004.7
20260505041545 9 215 16.1 43.5 0.00 1.93 0.00 75 1003.9
20260505040042 9 200 12.9 43.5 0.00 1.93 0.00 75 1003.5
20260505034536 10 179 16.1 40.2 0.00 1.93 0.00 74 1003.4
20260505033034 10 261 17.7 43.5 0.00 1.93 0.00 73 1003.2
20260505031537 10 228 17.7 41.8 0.00 1.93 0.00 72 1003.0
20260505030047 10 222 11.3 32.2 0.00 1.93 0.00 71 1002.8
20260505024531 10 213 12.9 43.5 0.00 2.08 1.93 69 1002.6
20260505023035 10 246 9.7 29.0 0.00 2.08 1.93 67 1002.6
20260505021533 10 250 14.5 33.8 0.00 2.08 1.93 64 1002.3
20260505020047 10 189 8.0 25.7 0.00 2.08 1.93 62 1002.2
20260505014532 10 178 1.6 27.4 0.00 2.72 1.93 62 1001.8
20260505013032 10 262 12.9 32.2 0.00 2.72 1.93 60 1001.6
20260505011536 10 182 16.1 40.2 0.00 2.72 1.93 60 1001.4
20260505010056 10 242 22.5 40.2 0.00 2.72 1.93 57 1001.2
20260505004535 10 189 8.0 51.5 0.00 3.15 1.93 59 1001.0
20260505003045 10 188 14.5 33.8 0.00 3.15 1.93 57 1001.3
20260505001535 10 214 14.5 43.5 0.00 3.15 1.93 52 1001.0
20260505000037 10 188 9.7 32.2 0.00 3.15 1.93 52 1000.6
20260504234536 10 204 12.9 27.4 0.00 3.48 1.93 54 1000.2
20260504233041 10 42 19.3 38.6 0.00 3.48 1.93 55 1000.1
20260504231535 10 240 14.5 37.0 0.00 3.48 1.93 55 999.5
20260504230039 10 242 9.7 27.4 0.00 3.48 1.93 57 999.3
20260504224535 10 233 12.9 29.0 0.00 4.11 1.93 58 999.4
20260504223033 10 185 8.0 27.4 0.00 4.11 1.93 59 999.2
20260504221535 10 274 8.0 25.7 0.00 4.11 1.93 59 999.5
20260504220035 10 185 9.7 24.1 0.00 4.11 1.93 59 999.2
20260504214540 10 242 22.5 43.5 0.00 4.32 1.93 58 999.1
20260504213034 10 219 20.9 45.1 0.00 4.32 1.93 59 998.8
20260504211532 10 200 19.3 48.3 0.00 4.32 1.93 60 998.8
20260504210033 10 286 16.1 38.6 0.00 4.32 1.93 60 998.8
20260504204543 10 200 19.3 40.2 0.00 4.55 1.93 62 998.5
20260504203037 9 188 19.3 40.2 0.00 4.55 1.93 63 998.1
20260504201533 9 248 24.1 51.5 0.00 4.55 1.93 64 998.0
20260504200043 8 201 20.9 54.7 0.00 4.55 1.93 67 997.5
20260504194535 8 199 24.1 61.2 0.00 4.55 1.93 69 997.1
20260504193032 8 205 17.7 45.1 0.00 4.55 1.93 72 996.8
20260504191538 8 321 17.7 46.7 0.00 4.55 1.93 75 996.3
20260504190036 7 255 20.9 51.5 0.00 4.55 1.93 75 996.0
20260504184538 8 182 16.1 53.1 0.00 4.55 1.93 75 995.7
20260504183036 7 195 22.5 57.9 0.00 4.55 1.93 77 994.7
20260504181534 7 283 22.5 53.1 0.00 4.55 1.93 79 994.7
20260504180033 7 295 19.3 64.4 0.00 4.55 1.93 82 994.8
20260504174530 6 247 27.4 64.4 0.00 4.55 1.93 83 994.4
20260504173035 6 219 25.7 62.8 0.00 4.55 1.93 85 994.0
20260504171535 6 264 27.4 69.2 0.10 4.55 1.93 87 994.4